GFSGL_700_rhum_009.txt.gz
RH
21 23 26 30 32 32 31 30 31 34 36 38 38 42 41 49 68 70 46 35 41 29 25 28 34 41 51 46 56 77 70 78 55 31 37 60 60 56 58 51 61 52 43
24 22 21 24 27 28 29 30 32 33 35 37 36 42 48 56 59 64 51 60 46 37 27 34 42 53 58 60 61 58 53 50 43 32 23 20 33 54 58 47 38 46 70
35 38 37 33 32 30 33 30 32 33 35 36 36 42 48 49 52 47 70 73 49 36 33 40 51 59 70 76 76 78 67 57 47 47 56 46 97 73 98 62 62 77 96
39 42 46 48 48 50 52 53 42 45 41 37 37 37 39 45 43 51 52 76 35 48 49 44 54 61 70 75 79 84 85 74 58 70 85 66 56 59 99 89 64 87 90
36 42 43 43 44 44 48 51 57 66 71 65 57 61 64 55 57 56 77 89 38 58 48 52 59 69 74 78 88 89 99 88 87 67 36 40 48 77 63 69 65 68 70
35 34 35 32 38 40 45 45 48 58 70 75 66 60 58 59 78 94 100 99 45 50 46 55 65 70 70 77 86 96 98 99 80 52 30 31 37 53 56 51 49 49 48
32 27 26 27 30 36 36 33 28 35 45 46 45 41 39 48 63 77 100 98 62 51 55 62 69 67 80 91 92 94 98 98 88 38 31 33 40 44 43 44 43 50 54
19 19 22 28 34 32 30 28 24 19 28 30 34 41 45 57 56 67 90 92 82 47 56 67 69 70 81 81 97 98 96 99 60 35 34 32 37 38 48 57 56 47 28
12 17 28 32 29 22 15 27 34 36 34 35 36 38 41 50 63 61 77 88 66 48 56 68 68 67 85 82 96 89 96 70 38 32 30 33 40 52 57 23 11 11 12
24 27 28 23 19 17 29 34 34 35 35 35 37 42 48 66 72 68 83 79 61 73 82 78 72 75 72 83 88 91 69 44 36 34 34 38 48 50 12 15 19 43 21
23 24 22 20 22 29 31 31 34 36 36 39 43 47 66 72 77 85 91 85 85 97 73 63 81 89 75 66 62 56 47 43 39 37 41 50 55 60 43 77 33 17 15
20 22 22 24 30 30 30 32 33 34 42 48 51 61 58 63 66 79 96 95 88 75 67 79 90 91 74 64 55 49 50 44 38 45 55 72 67 29 23 21 11 11 17
23 23 23 28 30 32 34 32 32 39 46 53 53 52 55 57 68 85 99 91 71 68 78 98 84 72 70 62 55 53 49 43 50 56 59 55 39 54 49 36 15 11 14
25 25 28 33 33 32 31 33 37 39 59 58 59 61 54 64 79 94 98 95 85 94 95 72 72 67 60 59 57 53 48 52 53 56 42 52 53 57 44 16 10 10 7
32 32 25 20 22 23 31 44 50 57 67 66 60 46 49 67 80 98 93 98 88 83 68 63 58 58 62 64 63 60 56 64 60 53 48 59 56 28 18 10 6 5 5
27 23 20 17 16 23 36 45 57 52 54 54 41 42 40 64 86 80 67 66 66 67 64 67 70 59 94 93 92 90 84 76 69 64 54 35 26 20 10 5 5 6 7
21 17 14 14 14 28 55 59 54 50 47 45 46 32 47 53 59 67 70 67 58 60 68 64 63 56 55 68 76 79 75 69 60 44 30 26 17 9 4 6 6 7 12
14 12 14 40 55 67 55 51 50 48 44 46 46 45 52 57 62 64 66 66 68 70 66 66 64 54 62 67 65 68 70 51 35 31 24 13 7 4 6 6 6 7 11
15 36 56 52 74 60 56 53 57 97 94 55 48 56 58 61 67 64 62 64 76 78 84 59 49 51 56 50 56 64 68 46 38 24 10 5 5 6 6 6 6 7 9
26 47 61 65 66 61 53 65 67 62 90 81 78 58 55 61 63 61 54 54 68 82 65 54 56 50 39 45 64 71 63 49 32 11 5 5 5 5 6 6 7 8 19
31 44 54 66 62 60 60 66 87 99 99 94 95 95 79 77 64 88 87 46 53 67 54 55 61 47 30 36 40 52 54 42 24 6 5 6 7 7 8 9 10 10 20
95 69 58 88 100 94 94 100 100 99 93 96 91 92 95 82 70 90 75 59 65 48 59 54 61 45 32 32 29 23 36 33 16 5 8 11 12 13 14 15 16 15 14
99 95 97 99 99 92 88 96 100 97 98 99 96 97 89 59 66 68 53 72 81 62 48 55 59 35 28 24 18 22 28 24 8 7 12 14 18 20 22 22 23 22 20
98 99 99 100 99 99 100 98 97 95 98 100 88 59 51 72 62 94 81 82 62 50 56 46 37 30 27 19 18 20 20 14 6 11 14 16 19 20 22 24 26 26 26
93 76 89 88 99 90 95 94 98 99 94 64 84 93 68 51 76 98 76 48 41 43 36 26 25 27 22 18 16 12 13 7 8 12 13 16 15 17 22 26 25 27 28
97 99 94 94 79 68 71 72 87 98 98 98 99 99 99 85 57 54 33 20 25 22 26 29 28 33 28 18 13 9 9 5 8 13 13 14 12 15 22 23 24 25 22

GFSGL_700_rhum_015.txt.gz
RH
16 10 10 15 28 29 29 32 34 34 35 33 32 32 33 37 38 38 37 36 35 35 37 46 53 69 45 33 36 48 55 56 55 57 61 52 47 42 30 26 22 21 19
16 21 10 17 28 31 30 32 31 33 33 33 32 31 31 33 35 37 36 34 31 32 34 44 55 74 60 35 38 48 59 71 76 82 83 78 84 90 80 38 19 21 22
16 20 19 17 25 25 23 24 26 28 32 35 36 34 32 31 32 35 35 32 31 31 33 41 52 71 80 42 45 57 64 78 81 75 74 82 90 87 94 69 28 29 34
24 20 28 24 21 21 22 22 26 30 32 33 34 34 32 32 32 34 39 44 39 32 33 37 54 77 93 47 55 50 63 65 71 78 74 80 78 88 87 85 38 30 28
21 26 29 30 23 24 25 29 30 32 37 39 39 41 41 41 39 45 58 57 58 45 40 42 67 91 97 51 50 51 61 68 77 72 72 78 74 89 98 95 64 39 34
21 19 27 28 26 27 33 38 42 43 42 44 48 51 57 62 71 73 60 51 63 59 58 65 76 98 97 52 51 57 76 78 71 85 77 74 83 76 74 61 40 40 34
29 21 24 24 24 24 31 37 38 40 45 49 54 59 64 60 63 58 48 49 59 68 84 97 99 98 97 55 56 71 93 89 86 82 80 80 77 51 47 38 34 30 30
25 23 22 18 24 24 30 36 43 44 44 48 53 57 54 47 35 41 44 47 56 67 72 84 99 93 100 77 80 92 96 95 96 86 72 57 47 45 45 43 35 32 34
20 21 16 19 16 18 24 40 45 40 42 51 54 48 29 38 38 43 46 56 58 60 71 81 92 96 98 84 86 97 98 93 96 70 54 49 49 49 48 40 37 42 40
17 20 19 23 17 14 27 48 38 42 59 59 34 30 39 36 40 43 45 50 60 76 81 80 88 100 96 95 94 94 92 97 69 65 56 51 54 54 47 50 52 66 43
17 27 41 37 20 21 31 38 52 59 58 32 36 35 32 36 39 42 48 53 62 61 69 76 85 90 99 98 93 96 95 90 68 54 55 57 58 51 52 58 64 50 53
38 54 39 36 25 22 31 62 58 54 33 36 31 29 30 34 41 43 48 64 63 60 71 82 89 98 99 92 92 95 82 62 54 50 57 55 54 59 56 50 48 57 64
63 51 36 28 30 31 57 66 58 34 33 30 25 20 22 33 42 50 61 68 68 67 68 77 75 88 87 84 88 83 61 56 52 44 42 53 61 61 60 56 63 63 32
55 44 39 29 38 66 62 47 34 32 27 25 18 18 34 39 56 67 70 62 46 50 67 82 89 96 97 92 80 61 59 54 52 43 42 64 70 68 64 58 39 27 21
58 56 60 58 61 44 31 33 30 28 20 18 22 28 50 58 63 49 43 37 30 44 73 82 96 90 71 62 59 54 59 81 52 43 45 44 59 54 36 30 24 13 6
76 69 49 36 33 33 31 29 26 18 16 22 33 53 56 51 42 40 37 29 48 64 60 62 62 59 58 52 51 56 54 52 62 44 41 57 63 41 34 23 9 5 5
44 39 35 33 31 30 29 23 15 18 24 43 60 58 50 39 42 43 40 47 54 53 53 49 46 44 49 54 58 48 50 49 48 50 61 73 56 43 24 7 5 5 6
34 31 30 29 30 30 27 25 14 19 52 62 49 58 50 50 47 45 45 51 55 57 58 54 40 42 59 68 51 44 47 40 36 52 61 62 54 35 9 5 5 6 6
33 31 32 28 23 27 49 31 19 40 28 29 54 56 53 56 56 51 50 52 53 52 50 50 44 35 50 57 45 45 44 34 31 36 41 49 44 19 5 7 8 10 11
38 35 39 31 50 75 78 44 44 46 32 38 86 76 57 59 53 59 50 49 50 53 45 44 49 52 54 51 48 51 39 26 24 24 21 28 28 7 8 10 12 14 17
42 63 49 53 58 67 34 59 85 91 66 98 81 71 64 82 57 66 51 44 45 45 46 34 39 40 39 33 39 41 24 20 14 10 14 26 12 8 11 14 16 19 22
45 52 52 97 92 99 82 68 81 83 100 98 94 82 71 72 74 70 68 43 26 34 40 45 40 25 34 26 25 19 17 13 10 14 20 16 7 10 13 15 14 18 22
27 83 59 57 79 92 95 67 98 87 92 93 80 83 84 81 86 68 78 50 34 49 77 47 25 24 26 28 23 21 22 14 12 13 16 11 8 11 12 13 11 21 21
58 70 89 72 78 90 80 81 77 87 69 79 89 90 85 92 84 84 90 72 68 70 96 63 23 23 27 19 18 18 25 18 12 10 11 7 8 10 12 10 12 19 20
78 66 93 79 81 88 98 91 82 88 83 82 100 75 79 91 93 97 85 65 64 33 40 25 27 21 14 23 25 25 25 20 14 9 8 6 8 10 13 10 11 16 20
95 97 99 92 91 96 97 84 78 97 96 90 93 100 97 93 85 84 86 72 46 32 33 32 19 13 11 20 24 22 18 16 15 10 7 6 8 11 14 11 10 11 18

GFSGL_700_rhum_021.txt.gz
RH
38 52 57 19 13 12 12 17 18 19 28 34 37 38 37 36 35 36 39 40 41 42 41 39 38 37 36 38 72 73 58 39 52 64 68 74 76 80 72 68 74 85 84
40 44 46 28 12 9 11 18 18 18 31 36 36 36 36 35 34 34 36 37 40 42 43 45 48 47 43 36 57 78 72 62 44 62 70 81 86 77 72 72 80 80 81
42 40 33 34 10 7 12 23 22 20 32 35 37 36 35 34 33 32 31 33 35 36 40 48 60 65 60 44 40 74 83 76 48 56 68 79 78 84 84 82 83 80 78
40 43 25 27 18 8 10 26 30 22 29 32 35 38 37 34 32 30 31 31 36 39 49 69 76 82 84 57 45 63 88 89 53 55 64 76 81 88 91 93 85 86 73
38 40 24 24 21 12 10 21 26 30 28 31 33 35 33 31 30 28 26 27 34 44 71 74 76 73 88 73 55 64 84 96 67 53 66 73 77 93 100 98 96 79 77
34 38 32 30 22 18 18 15 21 19 22 26 28 28 29 29 28 26 27 29 36 66 64 72 67 62 79 90 78 76 85 95 78 60 56 63 71 94 97 97 91 79 53
30 34 34 32 29 15 24 21 17 18 18 22 24 25 26 28 31 33 40 56 64 63 62 51 55 59 74 94 93 92 97 100 94 85 86 80 88 100 98 99 74 57 51
31 27 27 35 32 21 18 26 18 18 18 21 23 27 29 34 38 52 59 56 63 55 44 47 56 54 69 83 89 96 100 97 94 100 95 96 99 98 96 90 65 65 57
30 29 28 32 36 29 21 26 18 16 19 22 27 29 30 40 51 64 45 57 57 40 43 59 54 61 62 65 72 96 96 85 88 94 98 98 95 95 82 72 72 64 59
28 29 18 18 32 38 31 24 25 15 20 24 24 28 31 48 58 61 49 49 38 38 39 53 56 55 63 60 68 81 81 82 99 94 87 97 94 89 75 71 61 56 48
24 14 14 15 21 34 45 39 25 25 28 22 24 30 41 56 60 43 38 37 40 49 53 56 56 62 58 59 56 67 74 99 96 92 95 94 86 68 61 56 46 42 46
29 21 23 20 16 23 39 51 48 25 19 20 25 55 54 64 47 38 37 46 47 49 54 52 57 59 59 48 53 63 83 94 89 88 83 72 60 60 54 42 41 48 53
24 26 22 25 22 24 31 47 56 59 38 28 42 55 60 61 44 39 35 41 49 49 48 52 56 53 39 38 46 57 88 92 85 75 58 51 48 41 43 40 40 44 54
25 22 22 23 24 23 28 47 48 62 67 59 62 59 68 58 48 36 35 47 44 37 44 49 39 34 26 35 45 74 76 73 66 58 46 38 28 34 34 38 50 56 51
20 22 22 22 23 30 35 46 55 72 81 83 82 84 67 46 35 37 43 33 25 33 36 28 25 28 34 37 41 46 52 59 58 49 36 26 26 31 32 32 34 42 39
16 15 20 23 25 29 30 50 74 86 91 97 98 99 74 66 36 40 24 25 39 33 23 32 35 32 34 41 44 47 54 50 45 42 28 29 29 31 30 28 31 33 28
26 23 22 30 26 45 64 75 65 89 98 99 64 65 70 51 30 19 25 38 31 24 33 36 31 33 38 41 45 42 39 39 40 28 24 27 32 30 24 23 23 25 15
33 37 36 57 77 80 79 53 54 51 84 96 67 50 48 27 27 35 40 39 33 33 34 31 36 33 31 38 38 37 34 30 24 22 23 30 26 19 18 15 18 18 8
74 96 98 98 96 95 96 76 66 59 88 72 41 34 28 24 31 36 40 40 40 42 39 34 36 30 34 37 31 32 23 18 17 19 25 23 17 11 10 13 17 9 8
88 88 97 96 57 68 75 56 66 73 59 35 33 34 28 35 21 20 34 43 49 42 39 29 26 28 34 24 20 18 14 12 14 17 16 15 12 10 10 14 10 8 9
82 80 74 48 52 59 60 55 48 37 42 37 31 26 27 47 40 48 52 51 40 38 36 26 24 28 27 27 24 16 13 11 12 13 12 13 12 11 10 11 8 8 9
73 57 44 44 48 45 39 37 45 55 48 41 39 43 44 37 58 51 69 61 49 42 36 40 33 23 26 31 22 15 13 12 13 15 13 16 14 11 11 9 8 8 9
62 60 59 63 70 71 75 74 73 68 79 76 53 61 58 54 62 71 63 62 54 56 76 59 44 40 34 28 19 13 12 10 12 12 13 17 16 11 10 7 7 9 10
74 70 63 68 70 69 62 68 93 98 90 74 94 100 97 78 79 68 67 84 79 60 78 62 74 75 87 88 27 18 12 10 11 11 12 13 13 10 8 7 7 9 10
62 52 45 52 65 71 80 78 88 85 75 80 85 80 88 93 92 76 86 90 77 68 70 67 67 57 75 36 19 21 13 8 10 10 10 12 11 11 8 6 7 10 11
84 95 82 78 80 82 93 92 87 79 84 94 96 96 98 89 87 93 96 89 73 79 79 63 57 47 36 36 25 18 11 9 9 11 11 10 11 11 8 6 6 10 12

GFSGL_700_rhum_024.txt.gz
RH
43 41 47 55 62 42 21 22 14 19 12 14 28 35 38 39 38 36 37 40 41 42 44 46 46 48 52 53 45 43 75 75 61 47 55 63 70 76 79 80 74 73 81
39 40 42 50 59 60 25 19 14 18 14 15 30 36 39 40 38 36 35 36 38 41 44 44 52 60 65 67 68 47 47 78 82 80 48 62 68 78 85 76 77 76 74
37 40 40 42 44 47 33 18 13 18 17 17 24 36 39 40 39 35 34 34 35 35 38 41 51 62 78 82 80 67 50 55 82 81 64 53 59 76 76 75 77 79 78
31 38 40 37 28 36 28 15 11 19 18 25 32 36 39 39 37 35 33 32 31 33 37 43 54 74 80 85 78 84 66 54 72 88 84 55 56 68 79 80 84 95 95
33 35 33 31 38 42 28 14 9 23 21 18 29 36 38 39 38 35 33 31 30 30 32 46 64 76 70 78 71 78 78 66 66 77 95 74 56 64 68 69 72 85 94
31 34 34 37 38 43 25 16 9 21 26 20 28 34 36 37 38 33 30 27 24 25 30 57 68 68 60 62 62 75 86 81 79 83 94 94 77 89 84 69 74 100 89
29 31 35 35 37 37 35 21 12 11 26 24 24 29 32 33 33 29 28 24 24 34 53 65 62 59 56 57 54 59 76 85 86 94 99 100 96 98 92 95 98 97 92
27 26 31 37 36 38 40 30 17 14 15 20 23 27 28 27 26 28 24 28 38 52 42 60 46 51 48 64 56 59 69 80 97 99 100 98 98 89 86 91 90 92 78
25 25 27 31 37 35 40 33 22 19 22 16 18 20 21 23 25 24 25 39 46 46 52 40 32 40 55 55 54 51 65 73 98 99 97 95 90 87 84 95 93 82 64
22 22 27 28 35 35 36 40 40 23 21 23 18 18 21 22 23 23 29 44 47 42 29 40 32 43 47 52 52 56 58 89 100 100 87 95 94 90 86 89 74 58 52
20 19 22 28 31 33 35 39 49 47 26 20 25 21 19 20 20 24 32 45 50 32 27 34 37 38 40 50 48 58 57 73 92 80 93 96 94 85 72 60 50 39 30
22 23 22 25 30 35 26 28 29 46 50 30 18 24 23 22 20 23 34 53 39 32 36 41 43 35 37 38 44 54 41 52 64 90 99 88 74 60 50 40 32 31 32
23 27 30 29 34 37 32 23 30 26 46 55 51 26 24 21 23 25 45 52 45 41 43 47 35 32 24 30 44 37 31 50 81 91 87 63 53 47 39 28 34 33 32
12 13 17 23 33 31 30 40 25 33 27 26 50 61 42 28 34 64 63 54 46 42 38 43 33 22 20 34 27 33 45 56 74 60 47 43 39 40 26 26 30 30 29
13 14 19 22 29 33 31 38 45 29 33 51 36 51 65 72 70 73 86 67 44 46 42 41 24 17 26 23 31 39 42 44 47 36 32 31 34 25 24 26 28 27 20
16 15 15 14 16 18 19 32 33 34 41 50 51 46 71 79 99 98 77 94 63 45 48 27 17 16 20 34 40 33 39 36 32 27 30 32 24 24 28 28 24 18 14
21 20 19 17 16 16 18 19 18 19 36 57 61 68 68 64 65 90 77 76 58 55 40 24 16 30 33 36 38 34 33 28 27 29 32 24 24 27 26 22 15 10 9
10 12 14 18 18 18 18 22 47 48 78 96 68 62 61 65 67 60 74 64 60 45 30 24 24 33 34 38 35 27 26 27 26 31 20 18 24 23 19 14 10 9 8
27 31 34 37 31 17 27 39 70 98 99 99 99 94 68 44 51 55 67 64 48 43 33 26 33 34 34 32 32 27 23 22 22 16 14 16 18 15 13 11 10 9 9
35 93 100 100 100 90 92 96 100 97 85 63 75 98 65 46 42 59 66 50 47 38 29 42 38 37 25 26 29 28 18 18 14 11 12 12 12 11 12 11 10 10 8
64 93 70 66 100 100 88 56 42 52 70 60 68 90 68 52 44 53 52 48 42 40 48 42 31 31 24 25 29 24 20 16 9 10 9 10 10 9 12 11 10 10 8
66 86 91 76 82 73 56 52 52 58 61 57 74 64 57 47 54 54 47 44 49 50 41 38 40 42 32 25 21 17 16 14 9 9 8 9 10 10 13 12 10 9 7
70 67 74 73 68 57 53 65 55 73 80 81 72 51 50 57 55 54 57 65 63 52 44 52 65 75 59 43 34 23 18 13 10 8 8 9 10 9 10 11 9 8 7
78 78 78 76 83 87 82 74 79 83 79 79 84 86 69 56 58 73 71 69 68 70 79 66 67 58 50 57 46 31 21 11 9 9 8 10 10 10 9 9 9 8 6
74 73 77 82 85 83 96 95 87 86 96 98 95 87 87 88 89 94 86 91 93 87 83 86 76 58 52 65 85 41 15 8 9 8 8 9 9 9 8 9 9 8 7
87 100 95 80 84 87 92 100 100 100 98 99 98 96 100 98 97 100 99 100 97 92 95 87 83 75 74 65 52 28 14 10 10 9 8 8 8 8 8 8 9 8 7

GFSGL_700_rhum_030.txt.gz
RH
40 28 12 10 12 13 15 15 16 16 17 17 18 10 29 38 43 46 45 42 40 38 38 38 39 38 38 41 51 67 64 64 58 61 57 63 69 72 66 53 52 54 60
41 46 41 30 18 14 16 17 19 18 16 16 18 12 27 38 41 43 43 42 40 37 37 36 36 36 37 41 48 63 66 72 71 68 62 60 61 62 69 67 59 58 56
36 41 45 46 43 37 36 41 44 34 17 16 15 16 12 34 39 40 42 41 41 38 36 35 34 34 35 40 43 58 71 69 67 74 75 71 67 65 69 78 71 68 60
29 34 38 40 42 41 41 46 48 43 40 18 14 13 14 14 34 38 39 39 43 40 37 35 33 32 33 38 40 46 69 68 67 69 69 76 75 70 72 81 85 83 76
27 29 28 35 38 42 43 45 48 49 51 40 16 12 14 13 12 30 35 36 42 41 38 35 33 33 32 31 32 36 56 66 68 56 60 66 76 77 75 76 79 92 87
31 27 22 33 35 38 39 41 43 44 40 36 20 8 7 15 14 23 32 32 40 42 39 36 34 33 30 28 27 30 43 65 62 59 59 63 76 80 79 78 80 88 86
30 29 33 32 31 32 35 38 44 43 38 28 24 16 8 8 16 14 26 31 34 41 40 37 35 33 29 26 25 31 46 64 66 57 58 63 86 68 67 70 77 82 82
28 29 23 22 29 34 34 32 34 41 41 40 35 24 17 10 15 15 17 32 34 36 40 38 36 33 29 26 24 35 54 68 61 58 58 56 62 65 73 67 78 72 79
24 21 23 30 33 35 36 34 33 38 42 42 45 41 27 14 12 17 17 21 28 30 34 38 37 34 29 26 24 44 59 70 54 63 68 58 68 67 62 68 76 70 79
22 23 29 32 33 31 31 30 32 36 40 44 45 44 43 26 11 20 22 19 27 30 30 34 36 35 29 26 25 45 56 64 56 62 61 62 63 62 63 60 73 73 85
27 26 28 30 29 29 27 28 33 36 37 35 42 46 46 45 34 15 20 24 19 23 31 33 34 34 29 26 26 47 62 74 60 65 58 63 56 50 46 59 68 77 78
24 25 29 27 26 25 26 27 27 30 30 27 30 40 31 43 46 43 21 17 24 27 26 28 32 33 28 27 25 51 68 64 63 64 58 52 42 39 35 38 62 64 39
16 20 23 26 25 26 25 25 26 25 24 24 26 28 29 30 44 28 42 40 16 20 25 26 29 31 30 26 26 62 58 63 58 52 51 43 33 37 36 52 40 26 18
12 17 19 21 22 23 25 24 22 22 23 24 27 31 30 35 42 29 30 49 55 46 33 27 24 47 54 43 40 77 72 62 53 50 45 35 30 38 39 40 19 15 14
11 10 12 13 15 17 19 19 18 17 18 19 23 34 35 34 39 36 33 44 51 63 63 65 80 61 72 61 72 87 77 66 56 41 35 36 32 37 33 23 17 12 12
11 11 11 11 11 11 12 12 13 14 15 15 16 18 27 39 42 30 34 46 45 46 61 71 86 96 85 80 87 96 91 68 38 34 26 33 33 38 25 18 10 9 11
12 14 14 15 15 16 16 16 16 17 18 19 20 20 25 23 24 32 36 52 45 50 68 74 78 70 66 74 77 100 88 61 44 22 37 34 36 30 24 16 6 8 10
20 21 21 23 23 23 21 20 17 18 19 20 21 22 20 24 24 34 56 64 49 50 66 70 60 52 76 62 89 83 94 65 31 28 33 35 31 27 21 9 6 9 10
25 22 20 18 18 19 20 19 17 15 15 17 16 25 45 71 57 53 79 65 48 48 54 58 59 63 66 74 78 74 61 37 30 33 36 32 26 25 12 7 8 9 9
26 24 23 21 20 22 31 30 27 24 35 53 52 60 83 99 99 83 78 85 86 52 50 66 62 64 72 84 82 68 41 30 35 46 35 26 27 17 9 6 8 9 8
32 33 31 40 40 39 37 35 40 39 54 78 88 85 96 94 100 100 99 99 56 56 56 59 73 76 74 68 70 39 32 39 48 42 28 28 17 13 10 10 8 8 7
46 47 46 46 46 49 56 54 49 52 62 71 86 76 78 80 86 85 100 94 82 74 70 68 86 82 77 51 37 35 40 42 37 31 31 23 16 13 10 11 9 8 7
61 57 54 62 65 61 61 60 62 64 64 68 73 81 92 98 100 97 95 97 92 85 90 91 86 55 45 41 35 41 45 38 27 26 25 20 17 18 10 9 10 9 9
66 70 71 74 68 66 62 64 67 74 78 73 78 93 90 88 95 99 100 100 99 99 83 61 54 50 44 40 42 38 38 34 35 35 31 30 28 20 11 9 8 8 10
55 64 75 94 94 89 81 76 72 76 90 93 91 85 89 87 88 89 91 88 74 61 57 53 52 54 51 45 47 59 61 51 50 46 49 42 30 20 12 10 9 9 10
75 72 76 76 78 83 82 81 95 98 94 99 100 99 89 85 77 71 66 64 64 65 61 59 58 60 66 67 69 65 52 37 33 35 24 16 13 12 10 10 9 12 11

GFSGL_700_rhum_033.txt.gz
RH
27 13 10 10 12 11 14 14 11 12 11 14 11 16 10 8 29 40 42 41 40 40 39 39 40 39 39 37 38 43 56 67 67 64 82 57 62 61 59 62 69 68 63
37 40 30 14 10 10 11 12 12 14 13 11 10 12 16 8 16 37 41 43 39 41 41 38 37 38 37 37 36 38 44 63 65 65 71 68 56 63 66 65 65 75 86
34 37 37 35 21 14 11 11 12 14 16 15 12 10 12 13 9 26 37 40 41 38 42 39 37 36 35 35 35 36 37 43 62 63 70 65 65 56 60 69 68 70 80
28 35 30 27 22 22 24 20 16 17 19 20 14 11 10 11 12 10 24 35 36 36 40 41 40 38 35 34 33 35 37 35 37 63 67 66 65 62 56 71 73 69 62
28 26 23 21 24 36 37 37 38 36 36 39 36 22 12 10 10 11 11 19 34 34 33 38 42 40 36 34 33 33 35 38 40 43 63 65 58 62 75 86 66 64 80
24 28 25 27 24 24 34 40 42 41 38 40 34 31 25 12 8 8 12 11 19 34 35 34 41 42 39 36 34 33 32 30 30 41 59 71 60 59 61 80 81 66 72
19 22 30 28 27 27 28 32 32 36 40 36 40 39 31 26 13 8 8 14 13 20 30 30 35 41 41 38 35 34 31 28 26 28 55 76 63 58 53 72 70 70 70
15 22 21 29 30 31 26 30 33 38 39 40 41 43 41 32 26 14 7 11 15 14 22 28 30 37 40 40 38 35 34 29 26 28 57 59 51 57 53 62 69 61 60
14 15 21 21 30 28 27 31 30 31 34 34 37 40 40 40 38 28 14 9 13 14 14 20 29 32 36 38 39 36 35 31 27 25 57 57 51 50 36 50 54 52 66
12 14 22 22 26 29 32 34 30 32 35 37 37 36 36 36 38 40 33 16 12 14 13 14 16 25 30 31 37 37 36 35 29 26 50 61 57 47 31 41 53 39 62
11 14 15 24 24 25 26 31 35 37 38 37 36 36 37 38 38 39 42 42 34 21 15 12 12 17 21 26 31 34 35 37 32 32 57 70 63 52 35 29 33 36 68
10 11 19 23 25 24 25 32 34 35 33 31 31 36 34 31 28 26 31 43 44 42 19 18 18 14 16 20 24 29 33 41 36 33 56 72 61 47 36 22 16 37 65
10 10 15 26 28 28 28 32 34 31 28 27 31 30 26 24 23 24 27 31 36 47 48 20 18 23 24 22 23 31 38 40 37 40 80 55 69 45 35 18 17 32 46
11 11 14 16 20 24 29 30 29 29 28 27 26 25 23 24 27 27 26 30 34 42 47 55 40 29 31 24 29 47 52 62 52 51 68 72 95 65 58 28 19 24 41
11 11 11 12 16 19 21 22 23 24 24 22 20 17 17 16 15 27 35 34 33 33 43 53 55 56 49 39 27 41 64 49 81 70 64 71 99 79 59 20 25 26 23
11 11 11 12 12 11 11 11 11 12 12 14 15 17 17 18 19 19 20 31 31 36 39 46 53 56 60 65 70 70 67 67 79 79 85 88 99 86 42 29 31 36 22
13 11 11 11 12 13 13 13 14 15 16 19 20 21 20 20 21 23 24 24 25 28 54 62 51 50 62 66 77 82 81 83 88 98 100 100 89 78 33 38 36 33 23
17 20 17 15 16 19 21 25 24 22 20 20 20 19 18 17 17 17 19 29 28 32 39 52 52 46 49 70 92 87 81 88 80 92 99 96 89 59 40 39 40 28 20
26 24 23 24 26 25 24 23 22 21 20 20 18 18 18 16 16 19 22 32 37 41 48 50 61 58 65 75 74 75 84 65 98 100 99 88 64 47 38 35 43 33 16
24 28 29 26 24 23 23 22 22 21 21 20 17 20 24 26 25 32 46 79 92 98 74 74 96 87 90 78 74 72 96 82 94 83 69 48 51 43 43 46 32 20 10
32 30 30 29 29 29 32 30 28 26 28 30 32 35 33 30 30 40 49 55 74 98 100 100 99 95 94 70 81 80 86 81 83 65 44 53 54 47 40 37 24 15 10
39 43 44 43 42 41 38 39 39 40 43 42 42 44 46 45 47 60 70 83 95 86 95 92 98 100 95 80 68 75 80 85 75 43 43 42 43 32 28 23 17 14 10
56 57 55 52 51 52 52 53 54 57 57 62 62 58 64 68 78 93 85 80 82 92 92 95 95 94 89 92 78 82 86 67 42 40 39 39 32 23 22 19 16 13 10
56 59 71 66 63 60 59 59 63 62 61 70 75 72 78 79 81 88 86 96 98 98 97 99 98 96 94 92 91 68 49 45 44 43 42 29 27 25 24 20 16 14 10
46 46 62 80 88 79 77 76 76 74 75 74 83 82 76 74 77 80 90 98 100 100 98 99 100 97 85 67 54 49 53 49 43 34 33 37 39 41 37 36 31 21 11
65 81 84 74 70 77 79 78 79 80 86 93 91 94 99 95 81 76 76 91 92 80 67 66 66 61 59 60 60 61 48 44 52 54 50 49 40 37 36 33 24 16 10

GFSGL_700_rhum_036.txt.gz
RH
8 9 11 12 14 12 8 9 10 12 11 14 10 9 12 14 10 8 28 43 40 39 40 40 39 39 39 38 37 37 38 44 62 69 69 57 59 72 69 71 68 66 69
9 5 6 8 9 12 10 7 10 12 12 10 12 9 9 11 12 8 13 35 40 36 36 39 41 39 39 38 36 36 37 38 39 59 70 61 52 58 60 62 69 71 67
22 25 26 17 8 7 9 9 9 11 10 11 12 12 9 9 10 11 8 18 37 37 38 40 41 41 39 38 36 35 34 35 35 34 41 64 68 59 49 49 52 63 73
26 26 30 29 22 15 10 8 9 9 10 11 12 12 12 11 11 10 13 10 18 36 37 37 40 41 40 40 38 36 35 34 34 33 29 42 59 69 52 41 32 34 48
31 26 21 30 28 23 19 15 15 14 14 15 15 16 17 14 11 10 9 11 10 16 33 35 35 37 39 39 41 39 36 35 34 33 29 29 44 70 58 47 42 48 58
23 29 29 26 29 20 20 21 22 24 24 25 24 25 25 23 20 14 11 8 10 11 12 25 32 30 30 30 38 42 40 37 35 34 33 28 32 64 69 51 40 46 60
17 16 17 26 29 23 18 18 22 27 29 28 31 32 29 30 30 29 25 12 7 8 12 12 17 25 28 28 30 38 40 40 38 35 35 34 30 51 67 58 56 37 45
13 14 15 16 23 28 26 22 20 23 26 27 30 33 33 30 34 38 38 33 18 8 8 11 12 15 22 24 25 27 35 40 40 39 36 35 37 38 59 55 59 51 35
13 14 14 14 19 22 23 29 28 28 24 27 32 32 31 30 32 36 41 43 37 24 18 9 10 11 12 18 23 24 26 32 37 37 34 35 35 34 61 65 58 52 33
14 13 13 13 14 18 21 22 29 30 30 28 33 33 32 33 34 34 37 43 44 40 36 24 15 12 11 12 13 15 22 28 30 30 31 35 40 39 46 65 66 64 44
15 13 12 12 13 14 22 22 24 31 31 28 32 36 34 34 34 35 37 38 38 42 43 42 43 28 15 14 16 16 14 17 19 22 28 36 40 45 42 64 75 66 41
10 10 11 11 11 13 16 23 24 27 30 32 32 33 36 37 37 34 32 34 36 40 42 46 47 48 47 24 14 18 20 21 19 19 25 30 38 49 49 71 83 69 60
12 10 10 10 10 10 16 24 28 28 30 29 31 35 35 37 33 30 33 35 32 31 28 37 47 50 50 53 48 26 23 25 25 32 27 23 40 61 62 62 76 86 84
13 12 11 11 11 12 19 28 30 29 29 29 32 33 36 33 31 34 36 32 32 31 32 36 39 49 53 54 54 55 54 39 26 26 57 46 64 70 69 81 81 95 95
13 12 11 11 11 13 17 21 26 33 34 34 35 35 33 31 29 27 23 20 18 16 18 24 30 38 47 50 53 56 60 62 62 54 64 71 84 89 70 85 98 88 86
13 12 11 11 11 11 12 16 21 20 18 20 21 19 16 15 15 18 20 21 21 20 20 20 20 19 20 36 52 58 75 76 74 90 86 93 99 94 80 96 100 98 62
13 12 12 12 22 16 20 17 15 16 15 16 16 18 20 22 20 20 19 20 21 21 20 18 18 18 19 20 21 27 62 75 84 97 100 99 91 82 97 98 100 82 63
15 14 15 14 16 17 13 12 16 18 21 22 22 22 21 22 22 22 20 20 18 19 22 26 22 22 30 40 36 68 91 98 94 95 97 96 96 82 98 100 100 89 63
20 17 15 19 25 26 24 25 27 25 22 22 22 22 21 20 19 19 18 16 16 16 20 28 38 59 97 86 96 85 98 95 81 92 97 90 99 85 97 100 92 56 59
33 31 29 27 24 25 28 26 24 24 24 23 21 20 19 20 22 23 23 27 30 30 28 28 42 61 85 96 85 94 98 99 78 99 99 68 74 98 100 79 49 52 42
29 30 28 27 28 29 28 26 25 24 22 22 20 22 20 26 29 32 34 33 32 35 37 47 58 64 72 80 96 99 99 99 93 98 98 76 99 98 90 48 58 44 36
47 42 39 33 33 32 29 27 29 28 27 30 35 38 36 39 41 41 41 42 50 62 74 77 85 98 100 100 97 99 95 100 99 95 83 83 68 53 50 56 44 35 32
51 49 47 42 39 36 36 36 36 39 44 48 50 48 48 50 52 53 54 57 63 71 76 87 87 84 82 83 78 80 82 81 87 87 93 77 45 42 50 52 46 37 33
62 55 50 49 48 46 47 52 52 54 56 55 54 56 58 67 68 65 63 69 72 76 82 90 96 88 90 88 83 92 88 97 100 85 60 52 47 53 58 49 40 39 28
92 75 62 57 65 69 66 69 67 67 70 71 73 70 75 77 82 83 79 75 72 82 78 94 98 90 97 98 98 98 97 88 84 66 52 50 49 42 37 34 36 32 29
63 64 61 61 65 69 74 80 82 81 78 77 77 78 81 84 89 89 85 81 75 83 92 97 85 93 94 87 79 68 64 65 59 55 51 50 47 42 42 44 48 48 45